FW8143 Weather Reports


time (UTC)temp
F
wind
direction
speed
knots
gust
knots
rain 1hr
in
rain 24hr
in
rain mn
in
humidity
%
barometer
mb
20260901080938 61 236 5.2 13.0 0.00 0.13 0.00 75 1032.3
20260901080649 60 170 3.5 8.7 0.00 0.13 0.00 70 1031.6
20260901075926 60 139 2.6 10.4 0.00 0.13 0.00 71 1031.5
20260901075419 60 134 1.7 10.4 0.00 0.13 0.00 72 1031.5
20260901074912 60 90 2.6 8.7 0.00 0.13 0.00 71 1031.5
20260901074406 60 109 2.6 9.6 0.00 0.13 0.00 72 1031.6
20260901073900 60 120 3.5 9.6 0.00 0.13 0.00 73 1031.7
20260901073354 59 103 3.5 11.3 0.00 0.13 0.00 73 1031.7
20260901072848 59 144 3.5 11.3 0.00 0.13 0.00 74 1031.8
20260901072342 59 85 2.6 7.8 0.00 0.13 0.00 74 1032.0
20260901071835 59 82 1.7 7.0 0.00 0.13 0.00 75 1032.0
20260901071330 59 115 2.6 12.2 0.00 0.13 0.00 76 1031.8
20260901070824 58 94 3.5 12.2 0.00 0.13 0.00 76 1031.8
20260901070319 58 88 2.6 7.0 0.00 0.13 0.00 77 1031.7
20260901065821 58 130 3.5 9.6 0.00 0.13 0.00 78 1031.7
20260901065320 57 66 3.5 9.6 0.00 0.13 0.00 79 1031.7
20260901064822 57 139 3.5 9.6 0.00 0.13 0.00 80 1031.8
20260901064320 57 135 2.6 8.7 0.00 0.13 0.00 82 1031.8
20260901064127 56 140 2.6 9.6 0.00 0.13 0.00 83 1031.8
20260901064021 56 196 2.6 11.3 0.00 0.13 0.00 84 1031.8
20260901063037 56 181 2.6 11.3 0.00 0.13 0.00 86 1031.7
20260901062318 56 205 2.6 9.6 0.00 0.13 0.00 87 1031.8
20260901061818 56 291 0.9 8.7 0.00 0.13 0.00 88 1031.8
20260901061756 56 57 0.9 8.7 0.00 0.13 0.00 88 1031.8
20260901060818 56 38 4.3 8.7 0.00 0.13 0.00 88 1031.8
20260901060318 56 120 4.3 13.0 0.00 0.13 0.00 88 1031.7
20260901060039 56 109 4.3 13.0 0.00 0.13 0.13 89 1031.7
20260901055312 56 61 4.3 11.3 0.00 0.13 0.13 89 1031.7
20260901054806 55 135 4.3 11.3 0.00 0.13 0.13 90 1031.7
20260901054300 55 84 5.2 11.3 0.01 0.13 0.13 90 1031.8
20260901053754 55 94 5.2 9.6 0.01 0.13 0.13 91 1031.7
20260901053248 55 111 6.1 11.3 0.01 0.13 0.13 91 1031.8
20260901052742 55 95 7.0 12.2 0.01 0.13 0.13 91 1031.8
20260901052235 55 106 7.0 12.2 0.01 0.13 0.13 91 1031.8
20260901051731 56 108 5.2 11.3 0.01 0.13 0.13 92 1032.0
20260901051224 56 98 5.2 10.4 0.01 0.13 0.13 92 1032.1
20260901050718 56 82 6.1 10.4 0.01 0.13 0.13 92 1032.2
20260901050212 56 73 7.0 10.4 0.01 0.13 0.13 91 1032.2
20260901045705 56 39 6.1 10.4 0.01 0.13 0.13 91 1032.3
20260901045200 56 90 4.3 8.7 0.01 0.13 0.13 91 1032.6
20260901044654 56 63 3.5 9.6 0.01 0.13 0.13 91 1033.1
20260901044148 56 132 4.3 9.6 0.01 0.12 0.12 90 1033.6
20260901043641 55 142 3.5 7.8 0.01 0.12 0.12 90 1033.5
20260901043136 55 142 2.6 7.0 0.01 0.12 0.12 90 1033.3
20260901042629 55 119 2.6 6.1 0.01 0.12 0.12 91 1033.2
20260901042123 55 111 2.6 6.1 0.02 0.12 0.12 91 1033.0
20260901041618 55 107 3.5 7.8 0.03 0.12 0.12 91 1032.7
20260901041112 56 103 5.2 12.2 0.03 0.12 0.12 91 1032.6
20260901040606 56 106 4.3 12.2 0.03 0.12 0.12 91 1032.5
20260901040059 56 98 1.7 8.7 0.03 0.12 0.12 91 1032.3
20260901035555 56 191 2.6 12.2 0.03 0.12 0.12 91 1032.2
20260901035048 56 93 4.3 12.2 0.03 0.12 0.12 90 1032.0
20260901034542 56 123 5.2 14.8 0.03 0.12 0.12 90 1032.0
20260901034303 56 89 4.3 14.8 0.02 0.11 0.11 90 1032.1
20260901033758 56 133 4.3 11.3 0.02 0.11 0.11 90 1032.5
20260901033024 56 149 6.1 11.3 0.02 0.11 0.11 90 1032.3
20260901032518 56 61 6.1 11.3 0.02 0.11 0.11 89 1032.2
20260901032012 57 67 5.2 11.3 0.01 0.10 0.10 89 1032.6
20260901031506 57 26 4.3 9.6 0.00 0.09 0.09 89 1033.0
20260901031224 57 104 4.3 7.8 0.00 0.09 0.09 90 1032.8
20260901030717 57 101 4.3 7.8 0.00 0.09 0.09 90 1032.8
20260901025948 57 65 3.5 7.8 0.00 0.09 0.09 90 1032.8
20260901025441 57 60 1.7 6.1 0.00 0.09 0.09 91 1032.8
20260901024936 57 98 1.7 5.2 0.00 0.09 0.09 91 1032.8
20260901024430 57 115 3.5 6.1 0.00 0.09 0.09 91 1032.7
20260901023924 57 88 4.3 7.8 0.00 0.09 0.09 90 1032.3
20260901023418 57 67 4.3 7.8 0.01 0.09 0.09 90 1032.1
20260901022912 57 88 3.5 7.8 0.01 0.09 0.09 91 1032.1
20260901022405 57 95 3.5 7.8 0.01 0.09 0.09 91 1032.1
20260901021900 57 105 5.2 12.2 0.01 0.09 0.09 91 1032.0
20260901021354 57 131 7.0 12.2 0.02 0.09 0.09 91 1031.6
20260901020848 58 96 7.0 12.2 0.02 0.09 0.09 90 1031.2
20260901020342 58 71 7.0 11.3 0.02 0.09 0.09 91 1031.2
20260901015835 58 23 6.1 11.3 0.02 0.09 0.09 91 1031.2
20260901015330 58 11 3.5 7.8 0.02 0.09 0.09 91 1031.5
20260901014824 58 46 2.6 7.0 0.03 0.09 0.09 91 1031.7
20260901014318 58 69 2.6 5.2 0.03 0.09 0.09 90 1031.8
20260901014031 58 82 2.6 4.3 0.03 0.09 0.09 90 1031.7
20260901013311 58 90 2.6 7.0 0.02 0.08 0.08 90 1031.7
20260901012812 58 92 3.5 7.8 0.02 0.08 0.08 90 1031.5
20260901012537 58 34 3.5 7.8 0.02 0.08 0.08 90 1031.3
20260901011808 58 77 4.3 12.2 0.03 0.08 0.08 89 1031.5
20260901011531 58 117 5.2 12.2 0.02 0.07 0.07 89 1031.3
20260901010808 59 92 5.2 9.6 0.04 0.07 0.07 89 1031.3
20260901010307 59 111 5.2 9.6 0.05 0.07 0.07 88 1031.3
20260901005808 59 103 3.5 7.8 0.05 0.07 0.07 88 1031.5
20260901005310 60 97 2.6 6.1 0.05 0.07 0.07 88 1031.6
20260901005028 60 88 3.5 9.6 0.04 0.06 0.06 87 1031.6
20260901004527 60 97 4.3 9.6 0.04 0.06 0.06 86 1031.6
20260901003807 60 87 5.2 9.6 0.04 0.06 0.06 85 1031.7
20260901003306 60 97 5.2 9.6 0.05 0.06 0.06 84 1031.7
20260901002806 61 99 5.2 9.6 0.05 0.06 0.06 84 1031.8
20260901002306 61 88 3.5 7.8 0.05 0.06 0.06 84 1031.8
20260901001806 62 80 3.5 8.7 0.04 0.05 0.05 83 1032.0
20260901001303 62 113 4.3 9.6 0.05 0.05 0.05 82 1032.1
20260901000804 62 140 4.3 9.6 0.03 0.03 0.04 81 1032.0
20260901000304 62 174 3.5 8.7 0.02 0.02 0.02 78 1031.8
20260831235803 62 176 2.6 7.0 0.02 0.02 0.02 78 1031.7
20260831235753 62 130 2.6 7.0 0.02 0.02 0.02 71 1031.5
20260831235030 62 142 3.5 7.8 0.02 0.02 0.02 72 1031.2
20260831234304 62 134 3.5 7.8 0.02 0.02 0.02 74 1030.8
20260831234026 62 86 3.5 7.8 0.02 0.02 0.02 75 1030.6
20260831233304 62 132 4.3 9.6 0.01 0.01 0.01 74 1030.4
20260831233030 63 117 4.3 9.6 0.01 0.01 0.01 74 1030.3
20260831232305 63 120 3.5 12.2 0.01 0.01 0.01 70 1030.2
20260831232025 63 268 4.3 12.2 0.01 0.01 0.01 66 1030.2
20260831231304 64 179 4.3 12.2 0.00 0.00 0.00 73 1030.4
20260831230804 64 49 5.2 16.5 0.00 0.00 0.00 67 1030.3
20260831230304 64 101 6.1 16.5 0.00 0.00 0.00 67 1030.2
20260831225803 65 69 6.1 15.6 0.00 0.00 0.00 65 1030.2
20260831225306 66 53 4.3 11.3 0.00 0.00 0.00 64 1030.1
20260831224804 67 78 5.2 11.3 0.00 0.00 0.00 63 1030.1
20260831224304 68 87 7.0 17.4 0.00 0.00 0.00 60 1030.3
20260831223804 69 111 7.8 17.4 0.00 0.00 0.00 57 1030.3
20260831223304 70 111 8.7 20.0 0.00 0.00 0.00 54 1030.3
20260831222804 72 100 11.3 27.8 0.00 0.00 0.00 51 1030.3
20260831222301 73 140 14.8 27.8 0.00 0.00 0.00 45 1030.4
20260831221802 76 143 12.2 31.3 0.00 0.00 0.00 42 1030.3
20260831221302 79 170 7.0 31.3 0.00 0.00 0.00 37 1029.7
20260831220802 81 222 4.3 11.3 0.00 0.00 0.00 33 1029.9
20260831220300 81 207 5.2 10.4 0.00 0.00 0.00 32 1029.8
20260831215759 81 237 5.2 10.4 0.00 0.00 0.00 32 1029.8
20260831215259 82 175 4.3 9.6 0.00 0.00 0.00 32 1030.1
20260831214752 82 279 4.3 9.6 0.00 0.00 0.00 32 1030.1
20260831214246 82 248 5.2 10.4 0.00 0.00 0.00 32 1029.8
20260831213740 82 253 4.3 10.4 0.00 0.00 0.00 32 1029.9
20260831213235 82 215 3.5 9.6 0.00 0.00 0.00 32 1030.2
20260831212728 82 174 3.5 9.6 0.00 0.00 0.00 32 1030.2
20260831212225 82 175 3.5 10.4 0.00 0.00 0.00 32 1030.3
20260831211725 82 168 5.2 13.0 0.00 0.00 0.00 33 1030.4
20260831211225 82 186 6.1 13.0 0.00 0.00 0.00 33 1030.4
20260831210725 80 189 4.3 10.4 0.00 0.00 0.00 35 1030.6
20260831210225 79 161 3.5 8.7 0.00 0.00 0.00 38 1030.6
20260831210219 79 158 3.5 8.7 0.00 0.00 0.00 38 1030.6
20260831205448 78 117 3.5 8.7 0.00 0.00 0.00 40 1030.7
20260831204725 78 78 3.5 10.4 0.00 0.00 0.00 40 1030.8
20260831204225 78 136 4.3 11.3 0.00 0.00 0.00 39 1030.8
20260831203724 79 98 5.2 12.2 0.00 0.00 0.00 39 1030.9
20260831203224 79 107 5.2 12.2 0.00 0.00 0.00 37 1030.9
20260831202721 80 112 3.5 10.4 0.00 0.00 0.00 36 1030.7
20260831202219 80 139 2.6 8.7 0.00 0.00 0.00 37 1030.8
20260831201720 80 80 2.6 8.7 0.00 0.00 0.00 36 1030.8
20260831201446 80 133 2.6 8.7 0.00 0.00 0.00 36 1030.8
20260831200720 80 347 4.3 9.6 0.00 0.00 0.00 37 1030.9
20260831200220 80 76 3.5 9.6 0.00 0.00 0.00 37 1031.1
20260831195719 79 165 2.6 7.0 0.00 0.00 0.00 36 1030.9
20260831195213 79 188 3.5 8.7 0.00 0.00 0.00 36 1031.1
20260831194707 79 88 4.3 8.7 0.00 0.00 0.00 36 1031.1
20260831194201 79 136 4.3 8.7 0.00 0.00 0.00 37 1031.2
20260831193655 79 184 5.2 8.7 0.00 0.00 0.00 35 1031.2
20260831193149 79 151 5.2 8.7 0.00 0.00 0.00 38 1031.3
20260831192643 79 211 6.1 13.0 0.00 0.00 0.00 35 1031.3
20260831192136 80 200 7.0 13.0 0.00 0.00 0.00 33 1031.3
20260831191631 80 306 7.0 12.2 0.00 0.00 0.00 32 1031.3
20260831191125 81 268 6.1 12.2 0.00 0.00 0.00 33 1031.3
20260831190619 80 223 6.1 13.9 0.00 0.00 0.00 34 1031.3
20260831190113 80 233 6.1 13.0 0.00 0.00 0.00 34 1031.3
20260831185606 80 201 8.7 17.4 0.00 0.00 0.00 33 1031.5
20260831185101 80 198 8.7 17.4 0.00 0.00 0.00 33 1031.6
20260831184555 80 198 5.2 11.3 0.00 0.00 0.00 33 1031.6
20260831184309 81 192 5.2 13.9 0.00 0.00 0.00 32 1031.6
20260831183542 81 186 5.2 13.9 0.00 0.00 0.00 32 1031.6
20260831183037 81 200 6.1 13.9 0.00 0.00 0.00 32 1031.7
20260831182531 82 213 7.0 13.9 0.00 0.00 0.00 31 1031.8
20260831182025 82 240 6.1 13.0 0.00 0.00 0.00 31 1031.8
20260831181519 82 290 4.3 13.0 0.00 0.00 0.00 31 1031.8
20260831181235 82 190 3.5 11.3 0.00 0.00 0.00 32 1032.0
20260831180507 81 251 3.5 11.3 0.00 0.00 0.00 31 1032.1
20260831180218 82 223 3.5 10.4 0.00 0.00 0.00 31 1032.1
20260831175454 81 198 2.6 6.1 0.00 0.00 0.00 33 1032.1
20260831174950 81 293 2.6 9.6 0.00 0.00 0.00 32 1032.1
20260831174443 80 175 2.6 9.6 0.00 0.00 0.00 33 1032.2
20260831173937 79 226 2.6 7.0 0.00 0.00 0.00 34 1032.1
20260831173431 79 290 2.6 7.0 0.00 0.00 0.00 35 1032.2
20260831172926 78 63 1.7 6.1 0.00 0.00 0.00 34 1032.2
20260831172640 78 327 2.6 9.6 0.00 0.00 0.00 36 1032.2
20260831171912 77 329 5.2 10.4 0.00 0.00 0.00 37 1032.2
20260831171407 76 331 6.1 11.3 0.00 0.00 0.00 37 1032.3
20260831170901 76 329 5.2 11.3 0.00 0.00 0.00 38 1032.3
20260831170355 76 330 4.3 9.6 0.00 0.00 0.00 37 1032.3
20260831165849 76 307 4.3 9.6 0.00 0.00 0.00 38 1032.5
20260831165343 75 5 4.3 12.2 0.00 0.00 0.00 39 1032.5
20260831164837 74 339 5.2 12.2 0.00 0.00 0.00 39 1032.5
20260831164331 74 296 5.2 11.3 0.00 0.00 0.00 42 1032.3
20260831163825 73 0 4.3 11.3 0.00 0.00 0.00 42 1032.3
20260831163319 72 259 5.2 11.3 0.00 0.00 0.00 43 1032.3
20260831162813 71 5 6.1 11.3 0.00 0.00 0.00 43 1032.3
20260831162307 71 346 6.1 13.0 0.00 0.00 0.00 44 1032.2
20260831161802 71 315 6.1 13.0 0.00 0.00 0.00 44 1032.2
20260831161255 70 350 6.1 10.4 0.00 0.00 0.00 45 1032.3
20260831160749 69 329 7.0 12.2 0.00 0.00 0.00 46 1032.2
20260831160244 69 20 7.0 12.2 0.00 0.00 0.00 47 1032.3
20260831155745 68 314 6.1 13.0 0.00 0.00 0.00 48 1032.3
20260831155242 68 304 6.1 13.0 0.00 0.00 0.00 49 1032.2
20260831154744 67 29 7.8 13.9 0.00 0.00 0.00 50 1032.2
20260831154243 67 0 7.8 13.9 0.00 0.00 0.00 51 1032.2
20260831153743 67 26 7.8 13.9 0.00 0.00 0.00 51 1032.2
20260831153243 67 336 8.7 16.5 0.00 0.00 0.00 52 1032.3
20260831152743 66 279 8.7 16.5 0.00 0.00 0.00 52 1032.3
20260831152241 66 15 7.8 14.8 0.00 0.00 0.00 53 1032.3
20260831152002 65 30 7.8 13.9 0.00 0.00 0.00 53 1032.3
20260831151507 65 17 8.7 14.8 0.00 0.00 0.00 53 1032.3
20260831151003 65 9 10.4 14.8 0.00 0.00 0.00 55 1032.5
20260831150241 64 30 11.3 15.6 0.00 0.00 0.00 56 1032.6
20260831145740 64 22 11.3 15.6 0.00 0.00 0.00 56 1032.6
20260831145241 64 29 10.4 15.6 0.00 0.00 0.00 56 1032.7
20260831144740 64 25 11.3 16.5 0.00 0.00 0.00 58 1032.8
20260831144235 63 20 12.2 18.2 0.00 0.00 0.00 58 1032.8
20260831143729 63 9 13.0 18.2 0.00 0.00 0.00 58 1032.8
20260831143226 63 10 12.2 18.2 0.00 0.00 0.00 59 1033.0
20260831142726 63 24 13.0 19.1 0.00 0.00 0.00 59 1033.0
20260831142227 63 38 12.2 19.1 0.00 0.00 0.00 59 1032.8
20260831141727 62 42 10.4 17.4 0.00 0.00 0.00 60 1032.8
20260831141227 62 328 10.4 16.5 0.00 0.00 0.00 60 1032.7
20260831140727 62 32 11.3 18.2 0.00 0.00 0.00 60 1032.8
20260831140227 62 10 12.2 20.9 0.00 0.00 0.00 60 1032.8
20260831135727 62 0 13.0 20.9 0.00 0.00 0.00 60 1032.8
20260831135227 62 15 12.2 20.9 0.00 0.00 0.00 59 1032.7
20260831134727 62 24 12.2 20.0 0.00 0.00 0.00 59 1032.7
20260831134227 62 345 13.0 20.0 0.00 0.00 0.00 59 1032.7
20260831133727 61 24 12.2 17.4 0.00 0.00 0.00 58 1032.6
20260831133227 61 21 13.0 20.0 0.00 0.00 0.00 57 1032.6
20260831132728 62 39 13.9 20.0 0.00 0.00 0.00 57 1032.5
20260831132228 62 355 13.9 20.0 0.00 0.00 0.00 57 1032.3
20260831131726 61 299 13.9 20.9 0.00 0.00 0.00 57 1032.5
20260831131226 61 43 13.0 20.9 0.00 0.00 0.00 57 1032.3
20260831130728 61 5 12.2 20.0 0.00 0.00 0.00 56 1032.3
20260831130228 61 5 10.4 16.5 0.00 0.00 0.00 56 1032.3
20260831125728 61 35 10.4 15.6 0.00 0.00 0.00 56 1032.2
20260831125226 61 26 13.0 20.9 0.00 0.00 0.00 56 1032.1
20260831124726 61 12 14.8 20.9 0.00 0.00 0.00 56 1032.0
20260831124227 60 17 13.0 20.0 0.00 0.00 0.00 57 1031.8
20260831123726 60 28 12.2 17.4 0.00 0.00 0.00 57 1032.0
20260831123227 61 18 13.0 18.2 0.00 0.00 0.00 57 1031.8
20260831122727 61 5 12.2 18.2 0.00 0.00 0.00 57 1031.8
20260831122454 61 30 12.2 16.5 0.00 0.00 0.00 57 1031.8
20260831121727 61 28 11.3 17.4 0.00 0.00 0.00 57 1031.8
20260831121221 62 19 11.3 17.4 0.00 0.00 0.00 57 1032.0
20260831120719 62 32 9.6 15.6 0.00 0.00 0.00 56 1032.0
20260831120218 62 12 7.8 14.8 0.00 0.00 0.00 55 1031.8
20260831115719 62 295 7.0 14.8 0.00 0.00 0.00 55 1032.0
20260831115218 62 321 7.8 14.8 0.00 0.00 0.00 53 1031.8
20260831114719 62 342 9.6 14.8 0.00 0.00 0.00 52 1031.7
20260831114218 62 13 9.6 12.2 0.00 0.00 0.00 52 1031.5
20260831113718 62 32 7.8 12.2 0.00 0.00 0.00 52 1031.3
20260831113218 62 30 7.8 11.3 0.00 0.00 0.00 52 1031.2
20260831112718 62 9 7.8 11.3 0.00 0.00 0.00 52 1031.2
20260831112218 62 13 7.8 10.4 0.00 0.00 0.00 52 1031.2
20260831111718 62 51 8.7 13.9 0.00 0.00 0.00 52 1031.2
20260831111219 62 14 9.6 13.9 0.00 0.00 0.00 53 1031.2
20260831110718 62 30 8.7 13.0 0.00 0.00 0.00 53 1031.2
20260831110218 62 17 7.8 13.0 0.00 0.00 0.00 53 1031.3
20260831105718 62 355 7.8 11.3 0.00 0.00 0.00 53 1031.3
20260831105220 62 5 7.0 12.2 0.00 0.00 0.00 53 1031.3
20260831104720 62 15 8.7 13.9 0.00 0.00 0.00 53 1031.3
20260831104213 62 19 8.7 13.9 0.00 0.00 0.00 53 1031.2
20260831103929 62 9 7.8 14.8 0.00 0.00 0.00 53 1031.3
20260831103202 62 14 8.7 14.8 0.00 0.00 0.00 54 1031.2
20260831102655 61 9 7.8 13.0 0.00 0.00 0.00 54 1031.2
20260831102151 61 12 6.1 13.0 0.00 0.00 0.00 54 1031.3
20260831101644 61 24 7.8 13.0 0.00 0.00 0.00 54 1031.3
20260831101137 61 19 7.0 11.3 0.00 0.00 0.00 54 1031.2
20260831100632 61 24 5.2 10.4 0.00 0.00 0.00 54 1031.2
20260831100125 61 61 6.1 13.0 0.00 0.00 0.00 54 1031.1
20260831095619 61 30 7.0 13.0 0.00 0.00 0.00 53 1031.1
20260831095113 62 14 6.1 9.6 0.00 0.00 0.00 53 1030.9
20260831094608 62 25 5.2 10.4 0.00 0.00 0.00 53 1030.8
20260831094319 62 23 6.1 11.3 0.00 0.00 0.00 53 1030.8
20260831093555 62 46 6.1 11.3 0.00 0.00 0.00 53 1030.8
20260831093050 62 45 6.1 10.4 0.00 0.00 0.00 53 1030.7
20260831092544 62 50 6.1 10.4 0.00 0.00 0.00 53 1030.8
20260831092038 62 5 7.0 11.3 0.00 0.00 0.00 53 1030.8
20260831091752 62 33 5.2 11.3 0.00 0.00 0.00 53 1030.7
20260831091026 63 19 6.1 11.3 0.00 0.00 0.00 53 1030.7
20260831090519 63 25 6.1 11.3 0.00 0.00 0.00 53 1030.8
20260831090014 63 22 5.2 10.4 0.00 0.00 0.00 53 1030.8
20260831085507 63 46 7.0 11.3 0.00 0.00 0.00 53 1030.9
20260831085002 64 5 8.7 13.9 0.00 0.00 0.00 52 1030.8
20260831084456 64 24 8.7 13.9 0.00 0.00 0.00 52 1030.9
20260831083950 64 14 8.7 14.8 0.00 0.00 0.00 52 1030.9
20260831083443 64 13 9.6 14.8 0.00 0.00 0.00 52 1030.9
20260831082938 64 39 9.6 13.9 0.00 0.00 0.00 53 1030.9
20260831082431 64 23 10.4 15.6 0.00 0.00 0.00 53 1031.1
20260831081925 64 19 10.4 16.5 0.00 0.00 0.00 52 1030.9